Retour au catalogue

KOMPSAT 2

ActifScienceSSO
NORAD 29268·PAYLOAD·🇰🇷 South Korea

Lancé Jul 28, 2006 depuis Plesetsk Cosmodrome

Loading…

Prochains Passages (prochaines 24 heures)

TLE

FraisSource: Space-Track

Époque: Sep 14, 2026, 13:59 UTC

1 29268U 06031A   26257.58277966  .00000294  00000-0  63689-4 0  9990
2 29268  97.8332  77.7296 0015021 145.0888 286.1153 14.64704792 74564

Suivez KOMPSAT 2 en temps réel avec AllMySat

Download on the App Store